Location: Newark
(43.5831°N, 21.3381°E)
Time: 20:28:40
(UTC+00:00)

Envisat - Pass Details

Date: 18 December 2019
Orbit: 764 x 766 km, 98.1° (Epoch: 28 January)

Event Time Altitude Azimuth Distance (km) Brightness Sun altitude
Rises 15:58:18 0° 151° (SSE) 3,220 6.2 -10.3°
Reaches altitude 10° 16:00:39 10° 146° (SE) 2,298 5.4 -10.7°
Maximum altitude 16:05:32 52° 71° (ENE) 956 3.1 -11.5°
Drops below altitude 10° 16:10:28 10° 357° (N) 2,314 5.3 -12.3°
Sets 16:12:50 0° 352° (N) 3,244 6.1 -12.7°
